Location: Newark
(49.8969°N, 3.3422°E)
Time: 23:00:49
(UTC+00:00)

deb Explorer IX - Pass Details

Date: 23 January 2020
Orbit: 549 x 1099 km, 38.8° (Epoch: 19 February)

Event Time Altitude Azimuth Distance (km) Brightness Sun altitude
Rises 23:39:51 0° 243° (WSW) 3,876 - -59.3°
Reaches altitude 10° 23:42:52 10° 234° (SW) 2,942 - -59.3°
Maximum altitude 23:49:12 33° 174° (S) 1,743 - -59.4°
Drops below altitude 10° 23:55:21 10° 114° (ESE) 2,859 - -59.5°
Sets 23:58:14 0° 105° (ESE) 3,754 - -59.5°
